Regional Weather Roundup
Issued by NWS

Home | Current Version | Previous Version | Text Only | Print | Product List | Glossary On
Versions: 1 2 3 4 5 6 7 8 9 10 11 12 13 14 15 16 17 18 19 20 21 22 23 24 25 26 27 28 29 30 31 32 33 34 35 36 37 38 39 40 41 42 43 44 45 46 47 48 49 50
000
ASUS43 KDTX 171910
RWRMI
MICHIGAN HOURLY REGIONAL WEATHER ROUNDUP
NATIONAL WEATHER SERVICE DETROIT/PONTIAC MI
ISSUED BY NATIONAL WEATHER SERVICE GRAND RAPIDS MI
200 PM EST MON DEC 17 2018

NOTE: "FAIR" INDICATES FEW OR NO CLOUDS BELOW 12,000 FEET WITH NO
SIGNIFICANT WEATHER AND/OR OBSTRUCTION TO VISIBILITY.

MIZ047>049-052>055-059>063-066>070-074>076-081>083-172000-
SOUTHEAST LOWER MICHIGAN

CITY           SKY/WX    TMP DP  RH WIND       PRES   REMARKS
ADRIAN         FAIR      39  24  55 W8        30.08S WCI  33
ALMA           FAIR      35  23  61 NW8       30.10R WCI  29
ANN ARBOR      FAIR      38  24  57 W10       30.05S WCI  31
BAD AXE        CLOUDY    33  24  70 NW15      30.02S WCI  23
DETROIT CITY   FAIR      38  23  55 NW7       30.05R WCI  33
DETROIT        PTSUNNY   40  24  53 W8        30.05S WCI  34
FLINT          PTSUNNY   36  25  64 W15       30.06R WCI  27
GROSSE ILE     PTSUNNY   38  25  60 NW10      30.05S WCI  31
HILLSDALE      FAIR      37  25  60 W12       30.06S WCI  30
HOWELL         CLOUDY    37  27  67 W9        30.06R WCI  30

CITY           SKY/WX    TMP DP  RH WIND       PRES   REMARKS
JACKSON        FAIR      39  26  59 W14       30.07R WCI  31
LANSING        FAIR      36  25  64 NW12      30.09R WCI  28
MASON          PTSUNNY   37  26  66 W13       30.08R WCI  29
MONROE         FAIR      37  25  60 W13       30.06R WCI  29
MT. CLEMENS    PTSUNNY   37  26  65 NW13      30.03R WCI  28
PONTIAC        PTSUNNY   36  24  62 NW12      30.02R WCI  28
PORT HOPE        N/A     33  23  66 NW14      30.01R WCI  23
PORT HURON     CLOUDY    34  25  69 NW12G18   30.02S WCI  25
TRI CITIES     FAIR      34  25  69 NW18      30.07R WCI  23
YPSILANTI      PTSUNNY   41  25  53 W12       30.06R
$$
MIZ043>046-050>051-056>058-064>065-071>073-077>080-172000-
SOUTHWEST LOWER MICHIGAN

CITY           SKY/WX    TMP DP  RH WIND       PRES   REMARKS
BATTLE CREEK   FAIR      39  25  57 NW13G21   30.10S WCI  31
BENTON HARBOR  PTSUNNY   38  26  62 NW8       30.16S WCI  32
BIG RAPIDS     FAIR      36  22  58 W8        30.09S WCI  29
COLDWATER      FAIR      40  26  56 NW9       30.10S WCI  34
HOLLAND        PTSUNNY   39  27  62 NW15G22   30.14R WCI  31
GRAND RAPIDS   FAIR      39  25  57 NW13      30.11R WCI  31
KALAMAZOO      FAIR      40  26  57 NW13      30.11F WCI  32
MARSHALL       FAIR      40  26  56 W9        30.09R WCI  34
MOUNT PLEASANT FAIR      35  22  60 NW6       30.09R WCI  30
MUSKEGON       PTSUNNY   39  24  55 W12       30.13S WCI  32
STURGIS        FAIR      42  28  55 NW12      30.09F
$$
MIZ016>042-172000-
NORTHERN LOWER MICHIGAN

CITY           SKY/WX    TMP DP  RH WIND       PRES   REMARKS
ALPENA         CLOUDY    30  20  66 NW13G28   30.05R WCI  20
BEAVER ISLAND  CLOUDY    29  21  71 NW13G18   30.12R WCI  19
BELLAIRE       CLOUDY    32  22  66 NW6       30.12R WCI  26
CADILLAC       CLOUDY    29  20  68 NW7       30.07R WCI  22
CHARLEVOIX     CLOUDY    31  22  69 NW16G23   30.14R WCI  20
GAYLORD        CLOUDY    26  22  84 NW12G25   30.04R WCI  16
HOUGHTON LAKE  CLOUDY    29  21  72 NW16G22   30.06R WCI  17
MANISTEE       CLOUDY    32  24  72 NW13      30.14S WCI  22
OSCODA         CLOUDY    32  21  63 NW18      30.03R WCI  21
PELLSTON       CLOUDY    28  21  75 NW18      30.09R WCI  15
TRAVERSE CITY  CLOUDY    32  23  69 NW10      30.11R WCI  24
LUDINGTON      CLOUDY    34  24  67 N10       30.14R WCI  26
$$
MIZ007>008-015-172000-
EASTERN UPPER MICHIGAN

CITY           SKY/WX    TMP DP  RH WIND       PRES   REMARKS
KINROSS        FLURRIES  28  22  78 NW15G22   30.04R WCI  16
MACKINAC ISLAN CLOUDY    28  18  67 NW13G20   30.07R WCI  17
NEWBERRY       CLOUDY    27  23  85 NW10G23   30.08R WCI  17
S. S. MARIE    CLOUDY    28  20  71 NW15G28   30.03S WCI  16
$$
MIZ004>006-011>014-085-172000-
CENTRAL UPPER MICHIGAN

CITY           SKY/WX    TMP DP  RH WIND       PRES   REMARKS
ESCANABA       FAIR      30  17  58 NW10      30.15S WCI  21
MENOMINEE      FAIR      32  19  58 NW9       30.17S WCI  24
SAWYER-GWINN   SUNNY     25  16  68 NW12      30.12R WCI  14
$$
MIZ001>003-009>011-084-172000-
WESTERN UPPER MICHIGAN

CITY           SKY/WX    TMP DP  RH WIND       PRES   REMARKS
IRON MOUNTAIN  FAIR      28  17  63 NW12      30.14S WCI  18
HOUGHTON       FAIR      24  14  65 NW22      30.15S WCI   9
COPPER HARBOR    N/A     24  19  81 N13       30.16S WCI  12
IRONWOOD       FAIR      26  15  63 CALM      30.21S
$$

ABBREVIATIONS USED IN REMARKS
   TC - TEMPERATURE IN CELSIUS
  WCI - WIND CHILL INDEX
   HX - HEAT INDEX
  VSB - VISIBILITY




USA.gov is the U.S. government's official web portal to all federal, state and local government web resources and services.